Wind_Speed
61 62 64 64 64 67 69 69 71 73 74 73 73 73 73 74 73 73 72 72 71 70 70 69 69 69 68 68 68 68 68 67 66 66 67 67 66 67 66 67 68 67 66
64 64 65 66 67 67 67 67 66 67 68 68 70 71 72 73 74 73 73 73 73 72 73 73 73 72 73 72 72 72 72 72 72 71 71 71 70 71 69 69 71 71 70
62 64 65 67 68 70 71 71 72 72 72 71 71 70 71 71 71 71 72 72 73 74 74 75 74 74 74 75 73 74 74 74 75 75 74 74 74 74 72 72 73 73 76
63 64 63 64 64 66 68 70 72 73 74 74 74 74 74 73 73 73 73 73 73 73 73 74 75 75 75 75 75 76 75 75 76 76 77 77 75 75 76 77 77 78 77
63 66 68 69 69 68 68 69 70 70 72 73 74 75 76 76 75 76 76 76 76 77 76 76 76 76 76 76 77 77 78 78 78 78 78 79 79 78 78 78 77 77 77
61 63 65 66 67 69 69 69 68 68 69 70 70 70 71 72 73 75 76 77 77 77 77 76 76 76 77 77 77 78 79 79 79 79 79 79 79 79 79 79 78 76 74
64 63 62 63 65 66 67 66 65 65 66 66 66 66 67 67 68 69 70 71 72 74 75 76 76 75 75 75 75 75 75 76 76 76 76 76 75 74 74 74 73 72 72
59 62 63 63 64 63 62 64 66 66 64 64 64 64 64 65 66 66 66 67 68 68 69 70 71 72 73 73 73 73 74 74 75 75 74 74 73 73 73 72 71 71 70
56 58 59 61 61 61 63 65 64 61 62 63 64 64 64 64 64 64 64 65 66 66 66 66 66 66 67 66 65 65 67 68 69 69 68 68 67 68 68 66 65 64 64
57 55 58 57 59 59 59 59 59 61 63 63 61 61 61 62 62 61 61 60 61 62 63 63 63 62 62 61 60 59 59 61 61 62 63 63 61 61 61 61 61 61 62
63 63 63 61 59 57 57 57 58 57 57 57 59 59 59 59 60 60 60 58 57 57 58 60 60 60 59 59 58 57 57 57 57 56 57 58 58 58 59 59 59 59 59
66 65 66 66 69 68 64 61 58 56 57 57 57 56 55 55 55 55 54 55 55 54 54 54 55 56 56 57 57 56 56 56 56 57 56 57 56 56 57 57 58 58 59
49 72 74 70 70 69 70 70 67 64 61 60 59 57 58 58 57 55 54 54 53 51 51 51 50 51 51 51 52 53 53 54 54 53 53 54 55 56 56 57 57 57 55
41 41 47 64 73 75 71 70 69 67 67 65 64 65 64 60 58 57 56 56 56 55 53 52 51 51 50 51 50 50 51 51 52 52 52 53 54 54 54 54 53 53 52
44 42 41 41 44 53 63 67 71 71 68 66 66 67 65 63 61 59 58 57 56 55 55 54 53 51 50 50 49 49 49 49 49 50 50 51 51 51 51 50 50 49 48
43 46 44 42 42 41 41 44 54 63 67 69 69 67 65 64 62 60 60 58 56 54 52 52 52 51 50 48 46 45 45 45 45 45 47 47 47 46 47 47 46 46 46
42 44 47 45 43 42 41 41 42 46 51 63 68 69 67 65 63 62 60 59 58 56 53 51 48 47 46 44 43 41 41 40 40 41 41 43 45 45 45 45 46 46 49
40 42 45 48 46 44 42 42 42 42 45 48 54 65 69 68 66 64 62 60 58 57 56 54 51 49 47 45 43 42 40 39 39 39 40 40 42 43 45 46 47 47 48
38 40 43 46 48 45 44 44 44 45 46 49 53 58 62 70 68 65 62 61 59 58 56 55 53 51 49 46 44 43 42 41 41 41 41 40 41 43 46 47 46 46 46
36 38 40 43 46 45 44 43 40 40 39 41 43 48 56 62 64 64 62 60 58 56 55 53 52 51 49 48 47 45 43 42 42 41 42 41 42 43 46 47 44 43 43
33 35 37 40 43 43 41 38 37 35 33 32 34 37 43 48 54 52 56 57 56 54 53 52 52 50 48 48 48 47 45 43 42 41 41 42 43 44 46 46 45 43 40
31 32 34 38 41 41 38 34 34 31 29 30 30 35 39 42 41 44 45 49 52 53 52 51 50 49 47 47 47 45 43 42 41 41 41 42 43 44 46 45 43 42 40
33 32 32 36 39 40 36 33 32 31 30 31 33 35 38 40 38 36 39 43 47 50 50 49 49 48 47 47 46 45 43 42 41 41 42 42 43 45 46 43 42 41 40
33 33 33 34 39 40 38 37 32 31 31 31 34 37 37 37 38 36 37 39 41 44 47 47 47 46 46 47 45 44 43 42 42 42 42 43 44 45 45 43 41 40 38
34 34 34 34 37 40 40 38 35 31 31 31 33 38 39 37 37 35 34 36 37 39 41 44 45 45 46 45 44 44 42 42 41 41 41 43 44 45 44 41 39 41 39
32 33 34 36 36 39 40 38 37 34 31 30 31 36 40 39 37 36 35 34 35 35 36 39 42 44 44 44 44 44 43 42 41 41 42 43 44 43 42 40 37 38 39
Wind_Direction
243 243 245 245 242 239 238 239 241 242 243 244 245 246 247 248 249 250 251 251 251 252 252 253 254 255 255 256 258 259 260 261 261 262 263 264 265 266 267 268 268 268 267
242 242 243 244 245 246 245 244 243 243 243 243 245 246 247 248 249 249 250 251 252 252 253 254 255 256 257 258 259 260 261 261 262 262 264 265 265 265 265 266 268 269 268
244 243 243 243 244 244 244 244 245 246 246 245 245 245 246 248 249 250 251 252 253 254 254 255 256 256 257 258 259 260 261 261 262 263 263 265 265 266 265 265 266 266 267
242 243 244 243 244 245 246 246 246 246 246 247 248 248 249 249 249 250 250 251 252 253 254 254 255 256 257 258 259 260 261 262 263 264 264 265 265 264 265 265 266 266 266
243 243 243 243 244 244 245 246 247 247 248 248 248 248 249 250 251 252 253 253 254 254 255 256 256 257 257 258 259 260 261 262 263 263 264 264 264 264 264 264 264 264 265
242 243 243 244 245 245 246 246 247 248 249 250 250 251 252 252 253 253 253 253 254 255 256 257 257 258 258 259 260 261 261 262 263 263 264 264 265 266 266 265 265 265 265
242 242 243 244 244 244 245 246 247 248 249 249 249 250 251 251 252 253 254 255 256 256 256 257 257 258 258 260 261 262 263 264 264 265 265 266 266 266 267 267 267 265 265
244 244 244 244 244 244 245 246 247 247 247 248 249 249 250 251 251 252 253 255 256 257 258 258 259 259 260 260 261 263 263 264 264 264 265 265 266 265 265 266 266 267 268
245 244 244 244 245 245 246 246 246 247 248 249 250 251 252 252 253 254 255 256 256 257 258 258 259 260 260 261 262 262 262 262 263 264 266 266 266 266 267 267 266 267 267
246 246 246 244 243 242 244 245 247 248 249 250 250 250 251 253 253 255 256 257 258 258 257 258 259 260 261 262 262 262 262 262 263 264 264 264 264 264 264 266 267 267 268
248 247 246 244 243 243 243 243 244 244 245 247 248 250 251 253 253 254 254 255 257 258 258 258 258 259 259 260 261 261 261 262 263 263 263 263 264 265 265 266 267 268 269
250 251 249 248 248 246 243 244 243 244 244 245 246 247 248 249 251 252 252 253 254 254 254 256 256 256 256 257 258 259 260 260 261 262 263 264 265 265 267 269 271 272 273
252 248 248 249 249 248 250 248 248 249 248 249 249 249 249 249 249 250 251 252 252 253 254 254 254 255 256 257 257 257 258 259 260 261 263 265 267 268 271 272 274 275 276
257 256 252 249 250 250 250 252 253 252 250 249 249 249 249 249 249 250 250 252 253 255 255 256 257 257 258 259 259 259 260 261 262 263 265 268 270 272 273 273 275 276 275
255 255 255 254 252 249 249 250 251 251 251 250 249 248 248 248 249 249 249 249 249 251 253 255 256 257 257 258 258 259 260 262 264 266 267 268 270 271 273 274 274 273 273
255 251 252 253 255 254 252 249 247 247 247 248 248 249 248 246 246 246 246 247 248 248 249 250 252 254 256 257 258 258 260 262 263 265 267 268 269 270 271 272 272 273 274
255 252 248 250 252 254 253 251 249 250 249 245 243 244 244 245 245 244 244 244 245 246 247 248 249 250 252 254 256 258 259 261 263 266 269 270 270 270 270 271 272 273 277
256 252 248 246 249 252 254 253 252 254 255 253 249 243 237 238 240 241 242 242 242 243 244 245 246 247 249 251 254 257 260 262 265 268 270 271 272 270 269 269 271 272 277
257 253 248 245 245 248 253 254 257 257 257 260 259 248 242 235 233 235 238 239 240 241 242 244 246 247 248 251 253 255 258 261 265 268 271 273 273 271 269 268 270 273 274
260 254 249 245 242 244 250 255 258 258 259 268 258 245 239 238 234 233 232 235 237 239 241 242 244 245 247 249 252 254 256 259 263 266 269 272 273 271 270 272 272 275 276
265 258 250 243 241 242 247 253 255 257 260 267 254 241 236 235 236 237 233 233 236 238 239 240 243 244 246 248 250 252 253 257 261 264 267 269 272 272 271 272 272 273 275
269 262 254 243 239 239 244 249 254 257 259 259 252 240 233 232 234 237 237 234 232 235 237 239 241 242 244 246 247 249 252 255 259 263 265 267 269 270 271 273 272 273 274
270 264 259 245 238 237 240 243 249 250 255 252 244 234 235 236 235 235 237 237 234 232 234 236 239 240 242 244 246 249 252 255 258 262 264 266 268 269 271 272 269 272 274
269 265 256 249 238 235 236 237 242 246 250 252 244 238 235 237 237 234 232 235 234 233 232 233 236 239 241 242 245 248 251 254 256 259 262 264 266 267 270 271 270 269 273
269 263 255 248 238 233 233 234 238 246 249 252 248 238 234 232 236 237 233 232 235 235 233 232 234 237 240 242 244 247 248 252 254 258 260 262 265 267 269 269 271 268 271
273 261 251 242 237 231 230 232 235 243 249 252 251 239 233 230 232 235 237 236 237 239 238 237 235 237 239 242 244 245 248 248 252 255 258 261 264 266 269 268 268 268 269
Height
5572 5577 5583 5588 5594 5600 5606 5612 5618 5624 5629 5635 5641 5646 5651 5656 5661 5667 5672 5676 5680 5685 5689 5693 5697 5701 5704 5707 5710 5713 5716 5719 5723 5726 5727 5729 5732 5734 5734 5734 5737 5740 5743
5557 5562 5567 5572 5577 5583 5589 5595 5600 5606 5612 5617 5623 5629 5634 5639 5644 5649 5654 5658 5663 5667 5672 5676 5679 5683 5686 5689 5693 5695 5699 5701 5705 5709 5710 5712 5714 5715 5717 5718 5719 5721 5724
5540 5545 5550 5555 5560 5566 5572 5577 5582 5588 5593 5599 5605 5610 5616 5621 5626 5631 5635 5640 5644 5648 5653 5657 5660 5664 5668 5671 5674 5677 5679 5682 5685 5690 5693 5693 5695 5696 5698 5700 5702 5704 5705
5522 5527 5532 5537 5544 5549 5555 5559 5565 5571 5576 5582 5588 5593 5598 5603 5608 5613 5617 5621 5626 5630 5633 5637 5641 5645 5648 5652 5655 5657 5660 5663 5666 5669 5673 5675 5676 5677 5678 5681 5682 5683 5685
5507 5511 5515 5521 5526 5532 5538 5543 5549 5554 5559 5564 5569 5575 5580 5585 5590 5594 5598 5603 5607 5611 5615 5618 5622 5626 5629 5632 5635 5638 5641 5644 5647 5649 5652 5653 5655 5656 5658 5659 5662 5664 5665
5492 5496 5500 5505 5511 5516 5522 5527 5533 5538 5543 5548 5553 5558 5563 5567 5572 5576 5581 5585 5589 5593 5596 5600 5603 5607 5610 5613 5616 5619 5622 5625 5627 5628 5630 5633 5635 5637 5637 5639 5641 5643 5647
5476 5480 5484 5489 5494 5499 5505 5510 5515 5520 5526 5530 5536 5541 5546 5550 5555 5559 5563 5567 5571 5575 5579 5582 5585 5589 5592 5595 5598 5601 5604 5606 5607 5608 5611 5613 5615 5615 5617 5619 5620 5623 5626
5461 5464 5468 5473 5478 5483 5488 5493 5498 5503 5508 5514 5519 5524 5529 5533 5538 5543 5547 5551 5554 5557 5561 5564 5568 5570 5573 5577 5580 5584 5585 5587 5587 5590 5593 5595 5595 5595 5596 5598 5601 5603 5605
5447 5449 5452 5457 5462 5467 5471 5476 5481 5487 5492 5496 5502 5507 5511 5516 5521 5526 5530 5534 5537 5541 5544 5547 5550 5553 5556 5560 5565 5566 5567 5568 5569 5572 5574 5575 5576 5577 5577 5579 5581 5583 5586
5431 5435 5438 5443 5446 5450 5454 5459 5465 5470 5475 5480 5485 5490 5495 5499 5505 5509 5514 5517 5521 5525 5528 5530 5533 5536 5539 5542 5546 5548 5550 5550 5553 5554 5555 5557 5558 5559 5560 5561 5564 5566 5566
5414 5419 5422 5427 5431 5435 5439 5444 5449 5454 5459 5465 5470 5475 5479 5483 5488 5493 5498 5502 5505 5508 5510 5514 5517 5520 5523 5525 5529 5532 5534 5535 5536 5538 5539 5540 5542 5544 5545 5545 5547 5548 5548
5395 5400 5404 5408 5414 5417 5423 5428 5433 5438 5443 5449 5454 5459 5463 5468 5473 5478 5483 5486 5490 5493 5496 5499 5501 5504 5507 5510 5513 5516 5519 5521 5522 5523 5525 5525 5527 5528 5528 5529 5530 5529 5529
5377 5381 5384 5389 5393 5400 5403 5409 5415 5421 5427 5433 5438 5443 5447 5452 5457 5462 5467 5470 5475 5479 5481 5485 5487 5490 5492 5495 5497 5500 5503 5506 5508 5509 5510 5511 5512 5513 5512 5513 5513 5513 5513
5363 5364 5365 5369 5373 5379 5386 5389 5395 5402 5407 5413 5419 5424 5429 5436 5441 5446 5451 5454 5460 5463 5468 5471 5473 5476 5478 5481 5483 5486 5489 5491 5492 5494 5495 5496 5496 5497 5496 5497 5497 5496 5497
5349 5351 5352 5354 5356 5359 5365 5372 5375 5382 5387 5393 5399 5404 5412 5420 5424 5430 5434 5438 5443 5448 5452 5456 5459 5462 5465 5467 5470 5472 5474 5476 5477 5479 5481 5481 5482 5482 5481 5482 5482 5482 5481
5334 5336 5338 5341 5343 5346 5349 5354 5357 5360 5366 5372 5378 5386 5393 5400 5405 5411 5416 5422 5427 5433 5437 5441 5445 5448 5451 5454 5456 5459 5460 5462 5464 5466 5467 5468 5467 5468 5468 5467 5468 5467 5466
5319 5321 5324 5327 5330 5333 5336 5340 5343 5344 5346 5351 5357 5364 5373 5380 5387 5393 5399 5405 5412 5417 5422 5427 5430 5434 5437 5441 5444 5445 5448 5450 5452 5453 5453 5454 5454 5454 5455 5455 5454 5454 5453
5304 5306 5309 5313 5316 5320 5323 5326 5328 5331 5333 5336 5337 5342 5350 5358 5366 5373 5382 5389 5396 5401 5406 5411 5416 5420 5424 5427 5431 5433 5436 5438 5440 5441 5442 5442 5442 5442 5442 5442 5441 5441 5440
5290 5292 5295 5298 5302 5306 5309 5311 5314 5317 5318 5320 5321 5323 5330 5336 5346 5354 5364 5371 5378 5384 5390 5395 5401 5405 5409 5414 5417 5421 5423 5426 5427 5429 5430 5430 5430 5430 5429 5429 5429 5428 5428
5276 5278 5280 5283 5287 5291 5295 5297 5300 5302 5304 5304 5302 5305 5311 5318 5329 5335 5345 5353 5360 5367 5374 5380 5385 5390 5394 5399 5404 5407 5410 5413 5414 5416 5417 5418 5418 5418 5417 5417 5416 5417 5415
5264 5265 5266 5270 5273 5278 5282 5284 5287 5289 5290 5291 5291 5293 5298 5305 5313 5321 5328 5336 5344 5351 5357 5364 5370 5375 5380 5385 5390 5393 5397 5399 5401 5403 5404 5406 5406 5405 5405 5405 5405 5404 5404
5253 5253 5254 5256 5260 5265 5269 5272 5275 5277 5280 5282 5283 5286 5290 5298 5304 5310 5315 5322 5329 5336 5342 5349 5355 5360 5365 5371 5375 5379 5383 5385 5387 5390 5392 5393 5393 5394 5394 5393 5393 5392 5392
5241 5242 5243 5244 5248 5253 5258 5261 5265 5267 5270 5272 5275 5278 5283 5289 5294 5299 5305 5310 5315 5321 5328 5334 5341 5345 5350 5357 5361 5365 5368 5371 5374 5376 5378 5380 5381 5381 5381 5381 5382 5381 5380
5229 5229 5231 5232 5236 5241 5246 5250 5254 5257 5260 5262 5265 5269 5274 5279 5284 5289 5294 5300 5304 5309 5315 5320 5327 5331 5337 5343 5347 5351 5355 5358 5361 5364 5365 5367 5368 5369 5369 5369 5369 5371 5371
5215 5216 5218 5220 5224 5228 5233 5238 5244 5247 5250 5252 5255 5259 5263 5269 5274 5280 5284 5290 5294 5299 5303 5308 5313 5319 5324 5329 5334 5338 5341 5345 5348 5351 5352 5354 5355 5356 5357 5358 5358 5359 5360
5202 5202 5204 5207 5212 5216 5222 5227 5233 5237 5240 5242 5244 5248 5253 5258 5264 5270 5275 5280 5284 5289 5293 5297 5302 5307 5312 5317 5321 5324 5329 5332 5335 5337 5339 5341 5343 5344 5345 5346 5347 5348 5348